Theta_e
294 295 296 297 298 300 301 301 301 301 301 300 300 300 299 299 300 301 302 312 317 319 321 325 333 341 345 345 345 346 346 345 346 346 346 343 341 340 339 339 338 336 335
295 296 296 295 296 298 299 299 300 300 300 299 299 300 300 300 300 300 301 301 313 315 317 319 322 326 333 340 344 345 345 345 346 346 346 345 344 342 341 341 339 337 336
296 295 296 295 295 297 297 298 299 300 299 300 299 299 300 300 300 300 300 300 303 309 313 315 317 319 322 327 336 339 340 342 346 346 345 345 345 344 343 342 340 338 337
296 295 295 294 296 296 296 296 296 297 298 297 297 297 298 299 299 299 300 300 301 302 307 312 314 316 319 322 324 329 332 338 344 344 345 345 345 344 344 343 342 341 338
296 295 294 295 294 295 295 295 296 296 296 296 297 297 297 297 298 301 299 300 300 301 302 307 312 313 314 316 318 322 326 329 334 342 344 345 345 345 344 343 343 342 341
297 296 296 295 294 294 294 294 293 294 294 294 297 297 295 296 297 297 297 299 299 300 300 301 301 301 312 316 317 319 321 323 326 331 339 343 344 345 345 344 343 343 342
297 296 295 295 294 293 294 293 293 292 292 293 291 291 293 294 295 295 296 296 297 299 299 300 301 302 304 315 313 318 325 326 324 326 331 332 343 344 345 344 344 343 343
296 296 295 295 295 294 292 292 293 292 292 294 291 290 287 290 292 294 294 295 294 295 298 299 300 301 302 302 307 315 319 320 326 328 331 334 337 342 344 345 343 342 343
298 297 295 295 295 293 292 292 292 292 290 292 293 291 285 285 288 291 292 293 295 294 295 297 298 300 299 299 306 313 319 318 319 324 326 329 335 339 341 344 344 343 343
297 297 297 296 296 295 291 291 293 291 292 291 291 294 291 290 286 285 290 291 292 294 294 295 297 298 298 303 311 312 313 314 314 315 320 324 328 334 337 339 340 342 344
297 297 297 296 295 296 295 293 293 290 292 292 291 290 290 289 289 287 285 287 290 292 294 295 295 295 298 299 302 306 312 312 312 313 316 320 324 327 331 335 338 342 343
296 296 297 296 296 296 296 294 292 290 290 291 293 291 291 289 288 287 286 286 287 290 292 294 294 294 296 298 304 307 310 313 314 314 316 318 321 323 326 329 333 335 338
295 296 296 296 296 297 297 296 294 292 291 290 289 292 293 292 292 291 289 288 287 288 290 292 293 294 297 296 299 310 312 312 312 313 315 316 317 319 321 324 327 331 335
295 297 297 296 296 297 297 298 296 295 293 291 290 289 292 293 293 293 291 289 285 286 288 289 291 293 295 297 303 308 304 309 309 310 311 312 314 315 318 320 323 326 331
295 298 298 295 295 296 296 296 297 296 295 294 292 291 290 291 292 292 292 292 289 284 285 288 289 292 294 295 300 301 302 306 309 309 310 311 313 314 316 318 320 323 330
296 296 295 295 295 296 296 295 296 296 296 296 296 294 292 292 292 292 291 292 292 289 286 289 290 292 293 297 299 300 300 306 306 307 308 309 311 313 315 316 319 322 326
297 296 295 295 295 295 296 295 296 296 295 295 296 295 294 295 293 292 292 291 290 290 288 287 289 291 291 293 295 295 297 295 296 303 306 307 309 311 313 316 318 320 323
297 297 296 295 295 295 295 295 294 295 295 294 293 294 294 295 294 292 292 292 291 291 288 286 288 289 291 292 292 291 294 295 293 298 304 307 308 311 313 315 316 318 320
295 297 296 295 295 295 295 295 295 295 294 294 295 294 295 294 292 292 292 292 292 294 290 289 288 289 289 288 288 289 289 288 292 297 299 304 312 317 317 315 316 317 318
293 296 297 296 296 296 295 296 296 295 292 295 295 294 295 294 293 292 292 292 292 292 293 290 289 288 287 288 288 284 282 285 286 290 293 301 306 316 317 318 318 317 318
293 295 294 294 296 296 296 296 296 294 294 294 295 295 295 295 298 296 293 292 291 290 290 289 287 287 287 287 283 279 280 286 286 288 287 292 296 299 304 310 312 312 312
291 294 294 294 293 295 302 300 299 295 295 293 293 294 293 297 297 300 301 301 295 289 288 289 290 287 284 283 284 285 285 286 285 288 285 287 291 295 299 302 306 306 306
290 290 293 294 293 293 298 302 301 297 295 295 295 295 293 296 297 294 297 297 297 297 298 293 289 287 286 286 285 285 285 284 283 285 285 284 286 291 297 300 303 303 303
288 289 290 292 293 295 298 297 296 293 294 292 294 294 293 296 296 291 290 290 291 290 287 289 287 287 285 286 286 286 285 284 285 285 285 284 285 285 291 296 300 300 299
287 288 289 290 291 293 297 297 294 291 291 291 291 291 290 291 295 293 287 286 286 287 294 295 294 294 294 293 290 287 285 285 283 284 285 285 285 285 286 286 294 298 298
288 287 287 287 293 292 296 296 293 291 290 291 292 293 296 293 295 293 286 285 284 284 285 286 286 288 291 293 293 288 288 284 284 284 287 285 285 285 284 286 287 290 291
Wind_Speed
7 6 6 5 6 5 5 7 5 4 5 5 3 2 4 6 5 3 3 13 12 11 11 8 11 14 21 20 19 20 21 22 21 21 21 20 19 19 19 19 18 17 17
7 7 7 6 5 4 7 5 5 4 5 4 4 2 2 4 5 5 3 5 11 11 11 11 12 8 15 13 10 21 19 20 22 21 20 20 21 21 20 19 20 19 18
11 9 7 7 5 5 6 6 8 5 4 4 5 4 3 3 4 6 4 3 4 10 12 13 14 14 12 7 11 16 16 16 23 22 22 21 22 23 22 21 21 20 20
10 9 8 5 5 5 4 4 4 6 4 4 3 5 3 3 4 5 4 3 3 3 7 13 15 16 16 15 10 8 14 18 22 19 22 23 23 23 23 23 22 22 21
11 8 8 8 6 4 4 4 4 6 5 4 5 5 4 4 5 3 3 4 5 3 3 9 15 15 17 16 15 13 11 14 18 16 21 23 24 25 24 24 24 23 22
15 13 11 9 6 5 4 4 5 4 4 5 6 5 4 4 4 4 5 3 4 6 5 4 4 6 11 11 10 13 14 15 16 17 14 22 25 25 26 26 26 25 24
14 13 9 10 8 7 10 7 5 6 5 4 2 2 3 5 5 5 4 4 4 5 5 4 3 3 3 7 11 10 10 12 13 18 18 18 22 25 27 27 26 26 25
13 12 10 10 12 10 9 9 10 5 4 4 5 2 2 3 2 5 4 3 4 3 5 6 5 4 3 3 6 10 10 11 11 12 15 19 20 21 30 26 26 28 26
14 14 13 12 12 8 8 9 8 8 4 3 6 4 2 5 1 2 5 4 3 2 4 5 5 5 3 2 4 5 7 11 13 15 15 17 21 21 19 23 29 28 28
14 15 15 13 13 9 8 7 6 5 5 4 2 6 2 4 4 3 3 3 4 4 5 4 4 5 4 1 1 5 9 9 12 15 18 19 19 21 19 18 13 28 29
14 14 15 14 13 10 10 9 9 6 6 5 5 3 3 2 2 3 4 4 2 3 4 4 4 3 4 2 2 5 9 11 14 15 16 19 20 21 20 20 16 26 30
9 12 13 12 11 11 12 8 9 7 6 5 4 5 5 4 4 3 3 3 4 4 4 4 4 3 2 1 3 8 10 13 14 15 16 17 21 22 22 21 24 23 18
9 11 12 11 9 9 11 9 8 9 7 6 6 5 4 5 3 4 5 5 5 3 3 3 4 3 3 2 1 5 7 10 13 14 17 19 21 23 24 23 25 25 23
11 15 12 9 10 10 7 7 7 6 6 6 7 5 5 5 5 5 4 5 2 2 2 6 2 3 3 3 3 6 4 12 15 17 18 22 23 24 25 25 26 26 24
12 16 0 4 7 7 8 7 6 8 7 4 5 5 4 4 3 3 3 4 5 4 4 3 3 3 3 2 5 3 4 10 16 17 20 22 24 26 27 26 28 26 24
11 7 3 3 5 6 6 7 6 7 7 6 6 6 3 2 2 3 4 3 2 5 6 4 5 4 3 2 5 5 5 13 15 19 21 23 24 27 28 28 26 25 25
9 7 6 4 3 3 4 3 3 6 6 8 7 6 10 8 3 1 1 1 3 3 5 2 2 2 3 4 5 3 4 4 6 19 22 24 26 29 30 29 28 27 26
8 7 5 3 3 3 3 4 6 5 6 7 8 10 9 7 8 6 3 4 3 2 3 4 3 4 6 3 4 5 3 3 5 15 21 26 30 32 32 30 29 27 27
16 9 5 4 4 4 4 4 4 5 6 6 6 7 8 6 6 4 7 6 5 4 3 3 3 2 3 1 2 2 3 4 4 14 18 24 29 30 29 29 28 26 26
16 15 9 6 6 6 5 5 5 4 4 5 7 6 8 9 9 7 6 6 5 5 3 4 3 3 3 3 2 2 3 2 4 7 15 17 22 12 23 23 25 24 21
16 15 15 15 13 10 7 6 6 5 5 4 3 4 4 7 13 12 6 6 6 6 6 5 4 3 4 3 4 2 2 2 2 3 8 9 9 7 10 14 17 21 21
19 16 17 12 14 10 9 14 11 6 5 5 5 4 5 11 11 17 19 21 12 6 5 5 3 5 4 4 3 3 3 1 1 2 4 8 9 7 8 10 24 27 26
17 19 16 17 16 16 27 19 12 7 6 2 2 3 4 5 8 1 5 12 7 3 5 4 6 8 6 8 8 4 3 2 1 3 2 6 7 7 6 13 20 26 25
15 16 17 19 17 19 31 30 29 18 12 11 8 8 8 5 5 7 7 7 5 3 2 3 6 7 3 7 7 5 6 5 2 2 3 5 5 8 7 10 18 22 20
14 15 14 17 19 18 34 33 20 14 14 13 12 11 10 11 16 17 10 10 9 10 11 8 8 9 12 17 13 10 6 6 3 2 5 2 3 5 6 7 7 20 18
13 12 14 15 23 16 31 30 20 12 13 9 11 13 24 18 24 23 11 11 13 9 11 12 12 16 15 16 18 8 4 6 3 3 3 2 2 2 3 3 5 6 6
Wind_Direction
282 276 261 259 271 280 285 279 253 258 267 253 263 303 319 321 331 332 327 325 329 332 330 318 280 300 232 226 220 216 211 211 211 209 201 195 201 201 201 196 196 198 201
278 275 265 251 249 264 282 267 259 230 229 247 273 265 281 305 316 327 329 334 342 353 343 330 325 338 320 306 258 227 224 223 220 215 210 205 198 202 202 203 201 201 205
279 271 271 270 248 257 266 283 263 239 212 231 234 241 255 273 298 307 314 318 333 341 342 340 330 322 315 327 345 329 283 260 228 219 217 213 207 204 202 202 206 206 209
268 267 269 262 255 242 251 256 270 273 222 218 226 246 252 266 263 277 301 310 318 320 325 324 321 318 317 312 300 291 309 309 269 223 224 218 214 210 208 204 205 207 210
272 263 266 267 246 239 245 238 262 245 241 215 217 227 236 242 259 271 262 288 303 305 291 310 314 317 310 302 297 291 273 283 301 269 242 226 217 214 210 209 208 208 209
286 274 269 265 247 240 238 235 230 232 251 213 218 209 221 235 245 242 252 267 284 296 295 286 298 305 312 316 304 299 292 278 274 280 273 246 229 221 215 212 212 211 210
290 291 284 269 251 245 259 236 238 226 249 234 138 279 261 239 244 239 238 246 275 278 288 270 260 241 294 340 339 330 345 320 298 296 280 280 248 231 222 218 215 215 213
276 276 282 282 263 251 243 240 236 234 230 186 199 128 233 309 269 237 227 238 264 282 281 264 220 234 246 297 309 319 330 329 331 313 312 304 280 255 232 220 220 220 218
281 271 267 268 270 249 238 231 222 189 204 238 213 162 124 222 189 272 236 230 227 259 276 277 270 249 240 265 318 309 328 333 326 320 321 319 312 279 268 246 225 218 222
277 275 270 258 266 260 229 216 226 209 163 215 238 240 267 145 183 262 279 229 210 243 273 278 258 267 264 247 235 298 306 317 331 320 312 309 309 308 295 280 282 225 223
269 265 268 261 258 256 256 232 230 212 206 197 184 196 212 184 199 161 234 272 329 245 247 252 261 272 283 340 332 296 302 302 308 307 307 301 301 298 299 288 277 253 225
274 263 258 259 250 255 247 236 225 208 207 209 202 189 202 180 185 158 221 228 205 245 239 252 235 219 225 287 300 314 314 310 306 301 302 300 298 298 293 287 281 280 279
293 276 256 250 248 252 248 252 229 216 213 206 187 204 201 209 187 197 197 233 214 245 259 237 238 206 214 191 268 337 335 325 316 308 303 298 293 292 290 287 281 278 284
298 290 258 228 257 247 298 230 236 233 214 213 212 207 218 207 184 188 180 168 251 253 248 241 259 223 216 207 231 302 305 301 302 299 295 293 289 286 282 279 279 276 273
313 326 156 213 255 247 236 286 226 231 236 197 186 189 201 221 207 207 207 165 183 208 253 257 234 242 242 255 261 260 261 281 296 298 292 285 283 280 275 271 270 272 270
324 354 3 298 287 234 238 221 258 223 223 225 231 224 187 182 172 177 201 206 235 182 239 195 239 223 252 268 266 275 269 293 296 296 292 284 278 276 272 266 263 264 263
342 344 341 323 299 278 262 265 216 233 242 221 224 244 234 225 228 218 174 174 187 184 251 298 240 250 261 261 276 257 269 284 295 298 294 291 281 274 268 260 256 253 254
349 339 335 329 309 296 291 258 221 228 210 231 224 221 238 222 220 201 193 227 194 205 188 245 234 246 226 245 269 304 296 305 302 297 299 295 285 268 257 252 251 248 249
350 348 338 322 307 281 278 260 243 234 235 224 226 231 226 221 241 213 225 214 200 207 176 199 235 219 251 225 312 318 304 311 311 318 315 316 291 260 242 239 241 244 245
356 4 352 326 308 295 270 253 249 254 220 238 225 216 225 219 227 207 208 204 207 199 183 241 236 218 208 219 224 210 312 326 326 339 333 325 348 318 227 232 232 231 245
1 15 12 5 348 318 270 243 223 214 229 221 262 236 223 231 237 223 212 211 199 202 196 198 195 180 197 189 201 194 172 266 329 351 318 344 349 5 37 68 95 104 113
6 4 10 5 1 344 354 250 249 192 200 216 235 215 235 270 270 251 233 223 207 189 199 190 197 222 221 168 173 171 163 193 275 10 317 0 346 11 49 64 90 99 102
4 5 10 13 18 21 22 20 268 179 164 203 271 230 246 247 269 327 353 53 45 13 243 208 223 214 216 196 166 144 156 131 116 322 333 38 338 11 29 73 79 91 98
8 10 5 19 26 33 39 46 52 51 64 51 35 44 38 11 144 105 97 82 60 47 321 274 253 227 185 152 154 135 128 110 98 28 352 68 341 21 21 60 82 84 91
8 13 16 11 27 39 44 40 42 49 57 62 66 66 59 58 71 82 77 81 63 36 27 87 103 112 127 125 118 119 125 124 102 28 6 67 358 35 24 20 37 73 78
13 10 14 18 20 27 49 46 39 42 44 52 57 63 76 77 73 68 63 69 70 54 52 50 48 50 60 78 79 66 83 100 98 76 359 63 17 17 45 9 8 33 33